sat.trackr.live / text

‹ back to catalog

STARLINK-5924

NORAD 55963 · 2023-037BB

PAYLOAD ACTIVE UNKNOWN

§ Identity

Operator
Country
US
Launch date
2023-03-17
Launch site
AFWTR
Launch vehicle
Mass (kg)
RCS (m²)

Purposes: comms

External: N2YO · Heavens-Above · Gunter

§ Orbital elements

Epoch: 2026-05-25T04:38:30.891840Z

Period
96.11 min
Inclination
70.0006°
Eccentricity
0.0002942
Mean motion
14.98331192 rev/d
Perigee alt
570.0 km
Apogee alt
574.1 km
Semi-major
6,950.2 km
B*
1.1018e-5
RAAN
71.5292°
Arg perigee
261.8340°
Mean anomaly
98.2485°
Rev number
17,593

§ Raw data

STARLINK-59241 55963U 23037BB  26145.19341310  .00000038  00000+0  11018-4 0  99982 55963  70.0006  71.5292 0002942 261.8340  98.2485 14.98331192175932

JSON: /api/v1/satellites/55963 · /tle

For live sub-satellite position, see the globe view (requires WebGL).

§ Visibility from observer

Set your observer location to see the next 7 days of passes ≥ 10°. The values pass through the URL so the page stays shareable.

No JS? Fill the form by hand. The geolocation button needs JavaScript.